Location: Forst
(46.9333°N, 15.4333°E)
Time: 04:50:42
(UTC+00:00)

H-2A R/B - Pass Details

Date: 01 December 2020
Orbit: 733 x 836 km, 98.2° (Epoch: 18 January)

Event Time Altitude Azimuth Distance (km) Brightness Sun altitude
Exits shadow 19:16:04 19° 275° (W) 1,828 4.5 -40.9°
Drops below altitude 10° 19:19:16 10° 314° (NW) 2,336 5.0 -41.5°
Sets 19:22:16 0° 332° (NNW) 3,249 5.7 -42.0°
